Location: Lugrin
(46.4033°N, 6.6674°E)
Time: 17:31:00
(UTC+00:00)

Cosmos 1048 Rocket - Pass Details

Date: 18 September 2020
Orbit: 742 x 792 km, 74.0° (Epoch: 30 October)

Event Time Altitude Azimuth Distance (km) Brightness Sun altitude
Rises 19:24:12 0° 339° (NNW) 3,257 7.9 -18.6°
Reaches altitude 10° 19:26:35 10° 341° (NNW) 2,333 7.1 -18.9°
Maximum altitude 19:31:54 78° 67° (ENE) 806 3.9 -19.8°
Enters shadow 19:34:13 35° 149° (SSE) 1,252 4.7 -20.1°
